KB9HUO Weather Reports


time (UTC)temp
C
wind
direction
speed
KPH
gust
KPH
rain 1hr
cm
rain 24hr
cm
rain mn
cm
humidity
%
barometer
mb
20260503184820 17 232 4.8 4.8 0.00 0.00 0.00 41 1018.2
20260503184316 17 260 8.0 9.7 0.00 0.00 0.00 42 1018.0
20260503183812 17 248 4.8 4.8 0.00 0.00 0.00 39 1018.2
20260503183309 17 244 3.2 4.8 0.00 0.00 0.00 40 1018.3
20260503182807 17 243 1.6 1.6 0.00 0.00 0.00 42 1018.4
20260503182306 17 254 4.8 6.4 0.00 0.00 0.00 42 1018.6
20260503181802 16 235 4.8 4.8 0.00 0.00 0.00 41 1018.4
20260503181259 16 236 6.4 6.4 0.00 0.00 0.00 41 1018.6
20260503180756 16 234 4.8 6.4 0.00 0.00 0.00 40 1018.8
20260503180254 16 249 3.2 3.2 0.00 0.00 0.00 40 1018.8
20260503175750 16 228 6.4 11.3 0.00 0.00 0.00 40 1019.1
20260503175248 16 220 9.7 12.9 0.00 0.00 0.00 40 1019.0
20260503174744 16 231 4.8 4.8 0.00 0.00 0.00 40 1019.2
20260503174242 16 231 6.4 9.7 0.00 0.00 0.00 41 1019.3
20260503173742 16 227 6.4 9.7 0.00 0.00 0.00 40 1019.4
20260503173238 16 239 3.2 4.8 0.00 0.00 0.00 39 1019.6
20260503172735 16 221 3.2 4.8 0.00 0.00 0.00 43 1019.7
20260503172232 16 247 1.6 3.2 0.00 0.00 0.00 40 1019.4
20260503171729 16 239 6.4 6.4 0.00 0.00 0.00 43 1019.5
20260503171226 16 244 4.8 4.8 0.00 0.00 0.00 43 1019.4
20260503170723 16 243 3.2 3.2 0.00 0.00 0.00 39 1019.5
20260503170220 16 229 6.4 6.4 0.00 0.00 0.00 40 1019.7
20260503160142 15 218 3.2 4.8 0.00 0.00 0.00 41 1020.4
20260503150612 13 224 6.4 9.7 0.00 0.00 0.00 41 1021.1
20260503150108 13 219 3.2 4.8 0.00 0.00 0.00 43 1021.0
20260503130955 8 236 4.8 4.8 0.00 0.00 0.00 62 1021.3
20260503130453 8 228 1.6 3.2 0.00 0.00 0.00 62 1021.4
20260503110337 0 295 0.0 0.0 0.00 0.00 0.00 97 1020.7
20260503090223 0 295 0.0 0.0 0.00 0.00 0.00 96 1020.5
20260503081151 0 295 0.0 0.0 0.00 0.00 0.00 95 1020.3
20260503080646 0 295 0.0 0.0 0.00 0.00 0.00 95 1020.4
20260503080144 0 295 0.0 0.0 0.00 0.00 0.00 95 1020.3
20260503072621 0 295 0.0 0.0 0.00 0.00 0.00 95 1020.2
20260503072118 0 295 0.0 0.0 0.00 0.00 0.00 95 1020.1
20260503071614 1 295 0.0 0.0 0.00 0.00 0.00 95 1020.2
20260503071111 1 295 0.0 0.0 0.00 0.00 0.00 95 1020.3
20260503070608 1 295 0.0 0.0 0.00 0.00 0.00 95 1020.5
20260503070106 1 295 0.0 0.0 0.00 0.00 0.00 95 1020.3
20260503055031 1 295 0.0 0.0 0.00 0.00 0.00 94 1020.6
20260503054528 1 295 0.0 0.0 0.00 0.00 0.00 93 1020.5
20260503054025 1 295 0.0 0.0 0.00 0.00 0.00 93 1020.5
20260503053523 1 295 0.0 0.0 0.00 0.00 0.00 93 1020.6
20260503053020 1 295 0.0 0.0 0.00 0.00 0.00 93 1020.6
20260503052517 1 295 0.0 0.0 0.00 0.00 0.00 93 1020.7
20260503052013 1 295 0.0 0.0 0.00 0.00 0.00 93 1020.8
20260503051509 2 295 0.0 0.0 0.00 0.00 0.00 93 1020.7
20260503051007 2 295 0.0 0.0 0.00 0.00 0.00 92 1020.7
20260503050502 2 295 0.0 0.0 0.00 0.00 0.00 92 1020.7
20260503050000 2 295 0.0 0.0 0.00 0.00 0.00 92 1020.7
20260503045457 2 295 0.0 0.0 0.00 0.00 0.00 92 1020.7
20260503044954 2 295 0.0 0.0 0.00 0.00 0.00 92 1020.7
20260503044450 2 295 0.0 0.0 0.00 0.00 0.00 91 1020.7
20260503043948 2 295 0.0 0.0 0.00 0.00 0.00 91 1020.7
20260503043444 2 295 0.0 0.0 0.00 0.00 0.00 91 1020.5
20260503042941 2 295 0.0 0.0 0.00 0.00 0.00 90 1020.6
20260503042437 2 295 0.0 0.0 0.00 0.00 0.00 90 1020.4
20260503041934 2 295 0.0 0.0 0.00 0.00 0.00 90 1020.5
20260503041431 2 295 0.0 0.0 0.00 0.00 0.00 90 1020.5
20260503040928 2 295 0.0 0.0 0.00 0.00 0.00 89 1020.4
20260503040426 2 295 0.0 0.0 0.00 0.00 0.00 89 1020.3
20260503035923 2 295 0.0 0.0 0.00 0.00 0.00 88 1020.5
20260503035420 3 295 0.0 0.0 0.00 0.00 0.00 88 1020.4
20260503034917 3 295 0.0 0.0 0.00 0.00 0.00 88 1020.3
20260503034415 3 295 0.0 0.0 0.00 0.00 0.00 87 1020.5
20260503033911 3 295 0.0 0.0 0.00 0.00 0.00 86 1020.6
20260503033409 3 295 0.0 0.0 0.00 0.00 0.00 86 1020.6
20260503032907 3 295 0.0 0.0 0.00 0.00 0.00 86 1020.5
20260503032405 3 295 0.0 0.0 0.00 0.00 0.00 85 1020.3
20260503031903 3 295 0.0 0.0 0.00 0.00 0.00 84 1020.3
20260503031400 4 295 0.0 0.0 0.00 0.00 0.00 85 1020.4
20260503030857 4 295 0.0 0.0 0.00 0.00 0.00 84 1020.5
20260503030354 4 295 0.0 0.0 0.00 0.00 0.00 83 1020.5
20260503025850 5 295 0.0 0.0 0.00 0.00 0.00 81 1020.6
20260503025347 5 295 0.0 0.0 0.00 0.00 0.00 79 1020.6
20260503024844 5 295 0.0 0.0 0.00 0.00 0.00 78 1020.6
20260503024341 5 295 0.0 0.0 0.00 0.00 0.00 77 1020.4
20260503023838 5 295 0.0 0.0 0.00 0.00 0.00 77 1020.3
20260503023335 5 295 0.0 0.0 0.00 0.00 0.00 76 1020.3
20260503022832 5 295 0.0 0.0 0.00 0.00 0.00 75 1020.3
20260503022332 5 295 0.0 0.0 0.00 0.00 0.00 73 1020.4
20260503021828 6 295 0.0 0.0 0.00 0.00 0.00 73 1020.3
20260503021325 6 295 0.0 0.0 0.00 0.00 0.00 73 1020.0
20260503020822 6 295 0.0 0.0 0.00 0.00 0.00 71 1020.2
20260503020320 6 295 0.0 0.0 0.00 0.00 0.00 71 1020.0
20260503015816 6 295 0.0 0.0 0.00 0.00 0.00 71 1019.8
20260503015313 6 296 0.0 0.0 0.00 0.00 0.00 71 1019.8
20260503014809 7 296 0.0 0.0 0.00 0.00 0.00 67 1019.8
20260503014307 7 296 0.0 0.0 0.00 0.00 0.00 69 1019.6
20260503013804 7 296 0.0 0.0 0.00 0.00 0.00 63 1019.5
20260503013301 7 296 0.0 0.0 0.00 0.00 0.00 64 1019.7
20260503012758 8 296 0.0 0.0 0.00 0.00 0.00 61 1019.4
20260503012255 8 296 0.0 0.0 0.00 0.00 0.00 56 1019.3
20260503011752 8 296 0.0 0.0 0.00 0.00 0.00 60 1019.2
20260503011249 8 296 0.0 0.0 0.00 0.00 0.00 60 1019.2
20260503010745 9 296 0.0 0.0 0.00 0.00 0.00 55 1019.2
20260503010242 9 297 0.0 0.0 0.00 0.00 0.00 50 1019.0
20260503005740 10 297 0.0 1.6 0.00 0.00 0.00 50 1019.0
20260503005237 10 298 1.6 1.6 0.00 0.00 0.00 49 1019.0
20260503004733 10 335 1.6 1.6 0.00 0.00 0.00 48 1019.0
20260503004231 10 295 1.6 1.6 0.00 0.00 0.00 47 1019.1
20260503003728 10 295 1.6 1.6 0.00 0.00 0.00 46 1018.9
20260503003225 10 305 1.6 1.6 0.00 0.00 0.00 45 1018.8
20260503002722 10 292 1.6 1.6 0.00 0.00 0.00 45 1018.8
20260503002219 11 286 1.6 1.6 0.00 0.00 0.00 45 1018.8
20260503001715 11 293 1.6 1.6 0.00 0.00 0.00 43 1018.5
20260503001212 11 330 3.2 3.2 0.00 0.00 0.00 43 1018.5
20260503000710 11 287 1.6 1.6 0.00 0.00 0.00 43 1018.4
20260503000207 11 315 1.6 1.6 0.00 0.00 0.00 42 1018.3
20260502235704 11 295 1.6 3.2 0.00 0.00 0.00 43 1018.4
20260502235201 11 290 1.6 3.2 0.00 0.00 0.00 43 1018.4
20260502234657 12 291 1.6 1.6 0.00 0.00 0.00 41 1018.3
20260502234155 12 291 1.6 1.6 0.00 0.00 0.00 42 1018.3
20260502233650 12 286 1.6 1.6 0.00 0.00 0.00 41 1018.3
20260502233147 12 349 3.2 3.2 0.00 0.00 0.00 39 1018.4
20260502232643 12 279 1.6 1.6 0.00 0.00 0.00 38 1018.3
20260502232141 12 306 3.2 3.2 0.00 0.00 0.00 38 1018.4
20260502231637 12 330 3.2 3.2 0.00 0.00 0.00 39 1018.4
20260502231135 13 358 4.8 6.4 0.00 0.00 0.00 41 1018.3
20260502230633 13 298 3.2 3.2 0.00 0.00 0.00 39 1018.1
20260502230131 13 359 6.4 9.7 0.00 0.00 0.00 40 1018.2
20260502225626 13 280 1.6 1.6 0.00 0.00 0.00 37 1018.2
20260502225125 13 332 9.7 12.9 0.00 0.00 0.00 37 1018.2
20260502224620 13 292 1.6 3.2 0.00 0.00 0.00 40 1018.1
20260502224117 13 1 3.2 4.8 0.00 0.00 0.00 39 1017.9
20260502223615 13 262 3.2 4.8 0.00 0.00 0.00 40 1018.1
20260502223113 13 318 1.6 3.2 0.00 0.00 0.00 38 1017.9
20260502222610 13 315 4.8 4.8 0.00 0.00 0.00 38 1018.0
20260502222106 13 359 6.4 6.4 0.00 0.00 0.00 40 1018.0
20260502221602 13 290 3.2 3.2 0.00 0.00 0.00 42 1018.1
20260502221100 13 279 1.6 3.2 0.00 0.00 0.00 43 1017.9
20260502220555 13 341 1.6 1.6 0.00 0.00 0.00 39 1017.9
20260502220052 13 276 3.2 3.2 0.00 0.00 0.00 41 1017.9
20260502215549 13 284 1.6 3.2 0.00 0.00 0.00 42 1018.0
20260502215046 13 336 3.2 4.8 0.00 0.00 0.00 43 1017.9
20260502214543 13 287 3.2 3.2 0.00 0.00 0.00 42 1017.8
20260502214041 13 298 4.8 6.4 0.00 0.00 0.00 42 1017.9
20260502213537 13 293 1.6 1.6 0.00 0.00 0.00 41 1017.9
20260502213035 13 248 1.6 1.6 0.00 0.00 0.00 45 1017.7
20260502212534 13 251 0.0 0.0 0.00 0.00 0.00 47 1017.9
20260502212031 12 280 3.2 3.2 0.00 0.00 0.00 47 1017.8
20260502211526 12 258 0.0 0.0 0.00 0.00 0.00 50 1018.0
20260502211024 13 280 0.0 1.6 0.00 0.00 0.00 49 1018.2
20260502210521 13 280 0.0 0.0 0.00 0.00 0.00 48 1018.1
20260502210018 13 281 1.6 1.6 0.00 0.00 0.00 46 1018.2
20260502205514 13 277 0.0 0.0 0.00 0.00 0.00 46 1018.1
20260502205012 13 280 1.6 1.6 0.00 0.00 0.00 49 1018.1
20260502204508 13 318 3.2 3.2 0.00 0.00 0.00 47 1018.2
20260502204006 13 271 0.0 0.0 0.00 0.00 0.00 49 1018.1
20260502203503 12 264 0.0 0.0 0.00 0.00 0.00 49 1018.4
20260502203000 12 267 0.0 0.0 0.00 0.00 0.00 48 1018.3
20260502202456 12 283 1.6 1.6 0.00 0.00 0.00 46 1018.2
20260502201955 12 31 1.6 3.2 0.00 0.00 0.00 48 1018.4
20260502201450 12 308 3.2 3.2 0.00 0.00 0.00 50 1018.4
20260502200947 12 287 1.6 1.6 0.00 0.00 0.00 48 1018.5
20260502200443 12 345 3.2 3.2 0.00 0.00 0.00 49 1018.5
20260502195940 12 309 3.2 3.2 0.00 0.00 0.00 52 1018.5
20260502195437 12 282 0.0 0.0 0.00 0.00 0.00 53 1018.5
20260502194934 12 23 4.8 4.8 0.00 0.00 0.00 48 1018.5
20260502194431 13 275 1.6 1.6 0.00 0.00 0.00 49 1018.5
20260502193926 13 295 3.2 3.2 0.00 0.00 0.00 49 1018.4
20260502193424 13 273 0.0 1.6 0.00 0.00 0.00 51 1018.7
20260502192919 13 308 1.6 1.6 0.00 0.00 0.00 48 1018.7
20260502192416 13 0 3.2 3.2 0.00 0.00 0.00 49 1018.7
20260502191914 12 306 1.6 1.6 0.00 0.00 0.00 52 1018.7
20260502191411 12 254 0.0 0.0 0.00 0.00 0.00 51 1018.8
20260502190909 12 286 1.6 1.6 0.00 0.00 0.00 52 1018.9
20260502190406 12 292 0.0 1.6 0.00 0.00 0.00 51 1019.0
20260502185901 12 292 1.6 1.6 0.00 0.00 0.00 54 1018.8
20260502185357 12 286 0.0 1.6 0.00 0.00 0.00 54 1018.8
20260502184855 12 276 0.0 0.0 0.00 0.00 0.00 53 1018.9